Hourly Data Report for May 01, 2021

CARIBOU POINT (AUT)
NOVA SCOTIA
Current Station Operator: ECCC - MSC

45°46'00.000" N
62°41'00.000" W
2.40 m
8200774
71415
WBK

Download Data

Hourly Data (May 2021)
Hourly Data Report for May 1, 2021
TIME
LST
Temp Definition
°C
Dew Point Definition
°C
Rel Hum Definition
%
Precip. Amount Definition
mm

Wind Dir Definition
10's deg

Wind Spd Definition
km/h
Visibility Definition
km
Stn Press Definition
kPa
Hmdx Definition


Wind Chill Definition


Weather Definition


00:00 6.6 6.2 97 0.0 19 12   97.59     LegendNANA
01:00 6.4 6.1 98 1.1 27 12   97.60     LegendNANA
02:00 5.1 4.5 96 0.6 25 16   97.61     LegendNANA
03:00 4.6 4.1 97 1.5 27 26   97.66     LegendNANA
04:00 3.8 3.2 96 0.4 31 39   97.76     LegendNANA
05:00 3.8 3.5 98 0.0 32 39   97.94     LegendNANA
06:00 3.9 3.1 94 0.0 32 40   98.12     LegendNANA
07:00 4.1 3.0 92 0.0 32 43   98.28     LegendNANA
08:00 4.2 3.3 94 0.2 32 46   98.44     LegendNANA
09:00 4.4 3.3 92 0.0 32 49   98.58     LegendNANA
10:00 4.3 3.6 96 0.2 31 48   98.73     LegendNANA
11:00 4.7 3.9 94 0.2 31 44   98.86     LegendNANA
12:00 5.3 3.6 89 0.0 31 37   99.00     LegendNANA
13:00 5.7 3.6 87 0.0 31 39   99.12     LegendNANA
14:00 7.3 5.4 88 0.0 29 24   99.25     LegendNANA
15:00 7.3 5.1 86 0.0 30 23   99.30     LegendNANA
16:00 7.7 5.4 85 0.0 30 22   99.36     LegendNANA
17:00 7.7 4.5 80 0.0 29 22   99.44     LegendNANA
18:00 7.5 4.1 79 0.0 28 15   99.51     LegendNANA
19:00 6.7 5.2 90 0.0 29 14   99.60     LegendNANA
20:00 7.4 4.5 82 0.0 27 16   99.67     LegendNANA
21:00 7.7 4.8 82 0.0 27 14   99.76     LegendNANA
22:00 8.3 3.8 73 0.0 27 21   99.83     LegendNANA
23:00 6.1 2.3 76 0.0 31 29   99.93     LegendNANA

Notes on Data Quality.

Legend

  • E = Estimated
  • M = Missing
  • NA = Not Available*
  • [empty] = Indicates an unobserved value
Date modified: